CAPE
0 0 0 0 0 0 0 0 0 0 0 0 0 2 1 1 0 0 0 0 0 0 0 0 0 0 0 0 0 0 0 0 0 0 0 0 0 0 0 24 68 27 64 78 328
0 0 0 0 0 0 0 0 0 0 0 0 0 1 1 5 0 0 0 0 0 0 0 0 0 0 0 0 0 0 0 0 0 0 0 0 0 0 0 9 85 183 240 506 491
0 0 0 0 0 0 0 0 0 0 0 0 0 0 0 2 0 0 0 0 0 0 0 0 0 0 0 0 0 0 0 0 0 0 0 0 0 135 3 0 0 87 339 653 435
0 0 0 0 0 0 0 0 0 0 0 0 0 0 0 0 0 0 0 0 0 0 0 0 0 0 0 0 0 0 0 0 0 0 0 0 0 511 564 639 613 444 542 615 732
0 0 0 0 0 0 0 0 0 0 0 0 0 0 0 0 0 0 0 0 0 0 0 0 0 0 0 0 0 0 0 0 0 0 10 87 265 392 169 62 345 514 541 391 191
0 0 0 0 0 0 0 0 0 0 0 0 0 0 0 0 0 0 0 0 0 0 0 0 0 0 0 0 0 0 0 0 0 2 152 151 119 245 79 81 323 642 802 1210 1247
0 0 0 0 0 0 0 0 0 0 0 0 0 0 0 0 0 0 0 0 0 0 0 0 0 0 0 0 0 0 0 0 0 0 120 90 148 13 0 626 1511 2063 2159 2156 2153
0 0 0 0 0 0 0 0 0 0 0 0 0 0 0 0 0 0 0 0 0 0 0 0 0 0 0 0 0 0 0 0 0 0 2 260 147 0 2 551 899 1741 2107 1993 1859
0 0 0 0 0 0 0 0 0 0 0 0 0 0 0 0 0 0 0 0 0 0 0 0 0 0 0 0 0 0 0 0 0 0 12 202 4 0 1 661 1067 1299 1242 1285 1380
0 0 0 0 0 0 0 0 0 0 0 0 0 0 0 0 0 0 0 0 0 0 0 0 0 0 0 0 0 0 0 0 0 0 0 0 0 0 0 816 1298 788 447 475 911
0 0 0 0 0 0 0 0 0 0 0 0 0 0 0 0 0 0 0 0 0 0 0 0 0 0 0 0 0 0 0 0 0 0 5 0 8 30 0 84 860 676 118 126 168
0 0 0 0 0 0 0 0 0 0 0 0 0 0 0 0 0 0 0 0 0 0 0 0 0 0 0 0 0 0 0 0 0 1 3 0 0 0 152 199 484 980 232 125 41
0 0 0 0 0 0 0 0 0 0 0 0 0 0 0 0 0 0 0 0 0 0 0 0 0 0 0 0 0 0 0 0 0 0 0 0 0 0 100 635 574 494 656 231 120
0 0 0 0 0 0 0 0 0 0 0 0 0 0 0 0 0 0 0 0 0 0 0 0 0 0 0 0 0 0 0 0 0 0 2 0 37 0 11 467 539 754 724 328 322
0 0 0 0 0 0 0 0 0 0 0 0 0 0 0 0 0 0 0 0 0 0 0 0 0 0 0 0 0 0 0 0 0 0 0 0 0 0 25 433 413 459 427 225 152
0 0 0 0 0 0 0 0 0 0 0 0 0 0 0 0 0 0 0 0 0 0 0 0 0 0 0 0 0 0 0 0 0 0 0 0 0 0 5 283 187 395 186 198 58
0 0 0 0 0 0 0 0 0 0 0 0 0 0 0 0 0 0 0 0 0 0 0 0 0 0 0 0 0 0 0 0 0 0 0 0 2 0 0 5 18 195 29 1 0
0 0 0 0 0 0 0 0 0 0 0 0 0 0 0 0 0 0 0 0 0 0 0 0 0 0 0 0 0 0 0 0 0 0 0 0 0 0 0 0 0 130 0 0 0
0 0 0 0 0 0 0 0 0 0 0 0 0 0 0 0 0 0 0 0 0 0 0 0 0 0 0 0 0 0 0 0 0 0 0 0 0 0 0 0 0 0 0 0 0
0 0 0 0 0 0 0 0 0 0 0 0 0 0 0 0 0 0 0 0 0 0 0 0 0 0 0 0 0 0 0 0 0 0 0 0 0 0 0 0 0 0 0 0 0
0 0 0 0 0 0 0 0 0 0 0 0 0 0 0 0 0 0 0 0 0 0 0 0 0 0 0 0 0 0 0 0 0 0 0 0 0 0 0 0 0 0 0 0 0
0 0 0 0 0 0 0 0 0 0 0 0 0 0 0 0 0 0 0 0 0 0 0 0 0 0 0 0 0 0 0 0 0 0 0 0 0 0 0 0 0 0 0 0 0
0 0 0 0 0 0 0 0 0 0 0 0 0 0 0 0 0 0 0 0 0 0 0 0 0 0 0 0 0 0 0 0 0 0 0 0 0 0 0 0 0 0 0 0 0
0 0 0 0 0 0 0 0 0 0 0 0 0 0 0 0 0 0 0 0 0 0 0 0 0 0 0 0 0 0 0 0 0 0 0 0 0 0 0 0 0 0 0 0 0
0 0 0 0 0 0 0 0 0 0 0 0 0 0 0 0 0 0 0 0 0 0 0 0 0 0 0 0 0 0 0 0 0 0 0 0 0 0 0 0 0 0 0 0 0
0 0 0 0 0 0 0 0 0 0 0 0 0 0 0 0 0 0 0 0 0 0 0 0 0 0 0 0 0 0 0 0 0 0 0 0 0 0 0 0 0 0 0 0 0
0 0 0 0 0 0 0 0 0 0 0 0 0 0 0 0 0 0 0 0 0 0 0 0 0 0 0 0 0 0 0 0 0 0 0 0 0 0 0 0 0 0 0 0 0
CIN
0 0 0 0 0 0 0 0 0 0 0 0 0 0 0 0 0 0 0 0 0 0 0 0 0 0 0 0 0 0 0 0 0 0 0 0 0 0 0 -209 -325 -298 -318 -415 -761
0 0 0 0 0 0 0 0 0 0 0 0 0 0 0 0 0 0 0 0 0 0 0 0 0 0 0 0 0 0 0 0 0 0 0 0 0 0 0 -87 -198 -210 -427 -698 -737
0 0 0 0 0 0 0 0 0 0 0 0 0 0 0 0 0 0 0 0 0 0 0 0 0 0 0 0 0 0 0 0 0 0 0 0 0 -367 -305 0 0 -407 -312 -590 -610
0 0 0 0 0 0 0 0 0 0 0 0 0 0 0 0 0 0 0 0 0 0 0 0 0 0 0 0 0 0 0 0 0 0 0 0 0 -374 -415 -424 -504 -536 -514 -584 -546
0 0 0 0 0 0 0 0 0 0 0 0 0 0 0 0 0 0 0 0 0 0 0 0 0 0 0 0 0 0 0 0 0 0 -168 -435 -408 -379 -451 -579 -557 -531 -528 -564 -669
0 0 0 0 0 0 0 0 0 0 0 0 0 0 0 0 0 0 0 0 0 0 0 0 0 0 0 0 0 0 0 0 0 -277 -352 -343 -414 -408 -530 -614 -534 -555 -497 -377 -334
0 0 0 0 0 0 0 0 0 0 0 0 0 0 0 0 0 0 0 0 0 0 0 0 0 0 0 0 0 0 0 0 0 0 -285 -141 -349 -550 0 -422 -335 -280 -256 -209 -151
0 0 0 0 0 0 0 0 0 0 0 0 0 0 0 0 0 0 0 0 0 0 0 0 0 0 0 0 0 0 0 0 0 0 -54 -258 -269 -1 -621 -367 -351 -199 -173 -165 -182
0 0 0 0 0 0 0 0 0 0 0 0 0 0 0 0 0 0 0 0 0 0 0 0 0 0 0 0 0 0 0 0 0 0 -334 -232 -174 0 -85 -306 -249 -228 -232 -216 -170
0 0 0 0 0 0 0 0 0 0 0 0 0 0 0 0 0 0 0 0 0 0 0 0 0 0 0 0 0 0 0 0 0 0 0 0 -88 0 0 -265 -183 -324 -373 -363 -226
0 0 0 0 0 0 0 0 0 0 0 0 0 0 0 0 0 0 0 0 0 0 0 0 0 0 0 0 0 0 0 0 0 0 -469 -2 -485 -466 -2 -475 -241 -318 -551 -533 -445
0 0 0 0 0 0 0 0 0 0 0 0 0 0 0 0 0 0 0 0 0 0 0 0 0 0 0 0 0 0 0 0 0 -77 -403 0 0 0 -414 -398 -298 -214 -493 -604 -597
0 0 0 0 0 0 0 0 0 0 0 0 0 0 0 0 0 0 0 0 0 0 0 0 0 0 0 0 0 0 0 0 0 0 0 0 0 0 -429 -268 -296 -301 -223 -541 -579
0 0 0 0 0 0 0 0 0 0 0 0 0 0 0 0 0 0 0 0 0 0 0 0 0 0 0 0 0 0 0 0 0 0 -24 0 -185 0 -191 -261 -287 -273 -263 -516 -478
0 0 0 0 0 0 0 0 0 0 0 0 0 0 0 0 0 0 0 0 0 0 0 0 0 0 0 0 0 0 0 0 0 0 0 0 0 0 -96 -205 -295 -311 -361 -415 -444
0 0 0 0 0 0 0 0 0 0 0 0 0 0 0 0 0 0 0 0 0 0 0 0 0 0 0 0 0 0 0 0 0 0 0 0 0 0 -50 -207 -293 -248 -287 -274 -350
0 0 0 0 0 0 0 0 0 0 0 0 0 0 0 0 0 0 0 0 0 0 0 0 0 0 0 0 0 0 0 0 0 0 0 0 -99 0 0 -110 -255 -214 -277 -48 0
0 0 0 0 0 0 0 0 0 0 0 0 0 0 0 0 0 0 0 0 0 0 0 0 0 0 0 0 0 0 0 0 0 0 0 0 0 0 0 0 0 -165 0 0 0
0 0 0 0 0 0 0 0 0 0 0 0 0 0 0 0 0 0 0 0 0 0 0 0 0 0 0 0 0 0 0 0 0 0 0 0 0 0 0 0 0 0 0 0 0
0 0 0 0 0 0 0 0 0 0 0 0 0 0 0 0 0 0 0 0 0 0 0 0 0 0 0 0 0 0 0 0 0 0 0 0 0 0 0 0 0 0 0 0 0
0 0 0 0 0 0 0 0 0 0 0 0 0 0 0 0 0 0 0 0 0 0 0 0 0 0 0 0 0 0 0 0 0 0 0 0 0 0 0 0 0 0 0 0 0
0 0 0 0 0 0 0 0 0 0 0 0 0 0 0 0 0 0 0 0 0 0 0 0 0 0 0 0 0 0 0 0 0 0 0 0 0 0 0 0 0 0 0 0 0
0 0 0 0 0 0 0 0 0 0 0 0 0 0 0 0 0 0 0 0 0 0 0 0 0 0 0 0 0 0 0 0 0 0 0 0 0 0 0 0 0 0 0 0 0
0 0 0 0 0 0 0 0 0 0 0 0 0 0 0 0 0 0 0 0 0 0 0 0 0 0 0 0 0 0 0 0 0 0 0 0 0 0 0 0 0 0 0 0 0
0 0 0 0 0 0 0 0 0 0 0 0 0 0 0 0 0 0 0 0 0 0 0 0 0 0 0 0 0 0 0 0 0 0 0 0 0 0 0 0 0 0 0 0 0
0 0 0 0 0 0 0 0 0 0 0 0 0 0 0 0 0 0 0 0 0 0 0 0 0 0 0 0 0 0 0 0 0 0 0 0 0 0 0 0 0 0 0 0 0
0 0 0 0 0 0 0 0 0 0 0 0 0 0 0 0 0 0 0 0 0 0 0 0 0 0 0 0 0 0 0 0 0 0 0 0 0 0 0 0 0 0 0 0 0
Wind_Speed
16 16 16 15 16 17 18 18 19 19 19 20 19 18 17 17 14 3 4 6 4 6 4 4 3 3 4 3 3 3 5 2 5 2 7 3 8 3 0 5 2 4 2 3 13
17 17 17 16 17 18 18 18 20 19 18 19 17 17 15 14 2 4 9 5 4 3 2 2 2 3 4 2 1 5 4 7 5 4 5 6 2 10 9 5 1 4 2 9 12
16 16 17 18 19 19 19 19 20 20 19 18 17 16 14 8 3 3 3 9 7 4 3 2 3 2 4 1 3 3 4 4 6 5 3 4 4 7 8 6 5 11 7 14 13
18 18 19 20 21 21 19 20 20 21 20 18 17 15 14 4 2 2 8 10 6 5 5 3 3 3 3 3 1 2 7 5 6 3 3 4 3 6 13 7 17 9 11 17 13
17 19 19 20 20 20 20 21 21 20 20 18 16 12 7 2 7 4 9 7 4 2 3 2 4 2 1 2 3 4 4 5 6 6 6 9 10 9 18 16 11 19 19 17 10
17 17 18 21 22 22 22 22 21 20 18 16 12 8 4 2 0 8 7 4 3 2 3 3 3 4 2 4 4 6 2 5 1 5 7 14 10 6 14 13 16 24 21 20 18
17 20 21 22 23 23 23 23 23 21 18 13 7 2 1 8 2 6 7 4 4 3 1 4 3 0 1 5 2 1 5 4 8 4 5 3 15 14 13 12 19 20 19 19 18
17 20 21 25 26 26 25 24 23 19 9 7 5 3 6 2 3 2 3 3 5 5 3 4 4 1 2 5 9 7 7 4 5 8 6 9 3 9 13 12 16 16 18 18 19
17 20 22 24 27 27 26 25 19 7 5 6 2 0 6 2 2 3 4 3 1 1 1 1 5 3 5 4 6 8 2 3 3 11 3 8 3 8 11 8 12 14 15 15 16
17 20 22 25 27 28 28 20 3 2 1 2 4 2 2 1 4 2 2 1 3 2 4 6 6 4 4 5 2 2 3 5 5 7 18 13 7 5 7 8 10 13 13 14 15
19 20 24 26 28 29 15 2 7 7 7 3 2 4 6 8 3 2 3 4 2 7 1 1 5 2 5 6 3 3 6 10 2 3 11 4 6 7 4 5 7 9 12 15 14
17 20 23 27 28 25 5 7 5 4 9 4 5 6 6 3 3 2 4 2 2 1 4 6 1 5 2 4 3 3 8 4 6 3 8 3 8 5 6 3 1 5 7 16 9
16 18 23 29 28 4 4 6 2 2 3 8 5 4 4 7 2 4 4 2 2 2 2 3 5 3 1 3 3 3 5 5 8 3 5 1 5 7 5 6 5 2 2 11 14
16 17 18 32 4 5 4 3 6 5 4 5 3 7 4 2 3 4 4 2 3 2 4 2 4 2 2 2 4 2 5 5 14 5 4 3 3 6 5 7 7 7 3 9 11
16 16 15 8 5 4 4 9 7 3 2 2 3 1 1 5 2 4 0 3 1 2 4 2 2 1 2 1 2 4 5 6 5 5 5 5 6 6 5 4 6 10 10 10 8
14 18 15 1 1 7 8 9 4 5 2 1 4 3 4 2 4 2 2 6 2 3 2 5 4 2 1 3 3 4 5 8 6 4 5 3 5 5 3 3 3 5 5 6 8
17 18 11 2 4 4 6 4 5 3 4 2 3 4 2 2 1 1 3 6 3 3 6 6 4 6 3 6 6 8 8 5 6 7 3 4 5 6 3 0 3 5 4 2 5
20 22 4 5 3 5 3 6 2 3 4 3 3 5 4 5 3 3 3 6 5 4 3 3 7 7 9 2 5 4 5 7 2 1 3 5 3 3 3 7 6 4 3 4 6
18 5 4 4 4 1 6 2 6 3 3 3 3 5 2 1 5 5 4 2 3 3 4 3 3 5 5 4 2 2 6 4 8 3 4 2 1 3 4 4 3 5 5 5 4
4 5 5 1 4 5 4 5 4 4 5 1 3 3 4 1 5 4 4 2 3 5 1 2 3 2 5 3 6 5 4 5 5 2 1 3 1 3 5 3 4 4 4 4 6
3 5 3 3 3 5 3 5 6 7 5 1 3 4 2 5 4 3 3 3 5 4 7 2 3 4 4 5 3 7 5 7 6 4 5 2 4 4 3 2 5 5 5 5 5
2 3 2 1 4 1 1 3 5 7 3 2 3 3 3 4 5 4 3 3 6 1 3 2 5 2 1 1 2 2 2 4 6 3 2 4 4 5 5 6 6 5 5 5 5
1 4 4 3 1 2 5 5 4 4 4 5 3 3 2 5 8 3 3 2 7 4 3 2 4 4 7 7 7 7 6 4 4 4 2 5 3 4 6 7 5 4 5 6 7
2 2 4 4 1 2 3 4 6 3 2 3 3 5 6 7 6 6 3 5 4 4 8 7 4 5 7 3 2 4 7 4 3 4 4 2 4 2 3 2 4 5 5 6 6
2 3 1 2 3 3 2 3 4 6 5 7 4 5 6 5 5 5 3 2 5 7 5 6 5 2 4 6 7 5 7 10 6 1 3 5 3 1 3 2 3 4 7 7 8
2 1 4 3 3 2 3 3 3 4 3 4 5 3 5 6 6 7 5 2 1 6 4 4 2 2 6 7 8 8 7 7 7 6 6 5 1 3 5 4 5 6 7 8 8
1 3 3 3 2 2 3 4 2 2 7 3 4 8 10 4 6 5 5 6 5 4 3 5 5 3 0 3 2 7 5 4 3 3 3 2 4 3 4 6 6 6 6 6 7
Wind_Direction
347 346 335 330 332 321 326 329 316 317 319 315 320 320 319 312 308 159 243 208 143 153 153 152 148 58 68 95 94 122 61 281 257 190 273 332 3 279 208 104 354 230 255 281 124
342 340 330 332 330 322 323 324 312 314 315 312 320 317 316 312 305 248 243 140 120 172 68 90 10 45 65 93 51 94 115 226 216 221 280 313 20 330 354 359 176 276 56 99 124
334 331 332 334 328 321 320 318 310 312 313 312 316 314 308 303 316 264 90 134 153 144 96 79 67 74 81 118 176 167 197 213 277 248 262 292 82 13 350 8 353 291 3 48 74
328 338 337 327 328 315 315 313 309 311 311 310 312 312 303 257 124 60 123 134 149 134 123 99 13 65 77 8 75 348 253 204 307 22 20 2 337 70 36 312 293 274 114 92 93
329 335 327 321 316 312 316 312 307 309 302 303 306 310 287 336 253 126 122 131 121 142 88 92 55 105 119 234 341 170 262 97 298 86 66 82 52 72 27 356 24 68 72 74 75
330 322 324 325 316 319 314 311 310 303 297 296 292 310 258 299 3 136 121 112 106 113 138 164 168 198 206 212 166 201 296 296 168 94 63 82 30 51 354 347 38 67 65 60 56
330 327 330 321 325 318 316 316 311 304 294 275 262 249 67 229 73 139 160 182 177 182 226 190 151 158 285 307 223 217 43 36 18 293 142 73 35 24 357 21 50 57 67 62 52
329 328 327 328 323 319 319 319 309 308 283 217 197 236 243 248 90 139 148 255 189 214 219 171 153 136 303 319 360 17 74 66 1 357 1 85 19 13 4 36 47 44 51 48 54
329 331 330 328 321 318 323 316 308 306 117 137 183 168 274 307 270 243 162 235 234 206 256 117 90 74 17 54 15 6 40 23 44 359 75 70 124 1 10 47 64 60 51 55 39
331 330 329 329 321 323 326 307 226 77 72 218 254 35 292 294 293 256 200 192 272 313 34 52 49 54 30 64 228 350 57 60 58 340 69 61 58 12 8 53 70 75 64 53 40
331 333 331 326 325 329 335 297 5 8 28 278 229 245 279 296 267 222 150 127 102 59 80 51 76 232 223 197 209 102 89 111 130 144 66 50 66 27 29 36 63 77 87 68 52
334 328 329 327 331 320 279 72 90 243 311 266 242 267 259 246 308 305 114 127 69 10 330 27 7 234 213 161 118 118 112 86 52 18 90 152 49 338 24 15 133 87 103 98 80
329 331 332 330 323 4 332 91 327 180 239 297 221 222 235 146 220 269 144 137 114 61 17 130 254 323 126 78 126 118 124 191 132 109 26 164 33 5 338 352 31 243 319 80 81
325 331 336 329 39 322 307 353 273 209 42 271 253 275 154 181 299 220 196 133 31 40 137 221 291 28 360 94 122 88 174 166 141 115 173 57 241 342 351 327 357 13 123 56 75
320 328 330 344 286 310 298 316 326 81 56 168 177 106 48 132 291 349 210 54 164 350 61 279 329 325 32 353 193 187 89 131 121 92 106 17 77 276 352 340 343 1 9 27 28
322 318 335 28 341 253 324 306 59 41 270 146 130 134 98 25 355 320 59 45 70 68 15 259 296 273 282 88 49 122 87 55 56 80 46 310 116 282 256 283 337 318 353 352 2
318 307 310 161 243 320 300 40 43 133 346 187 149 119 102 147 329 64 58 33 67 55 4 341 339 317 39 45 7 60 53 1 18 20 201 317 56 246 322 148 239 232 255 327 2
315 310 198 233 275 350 18 50 196 264 243 306 131 102 157 171 31 46 54 32 12 58 70 61 356 2 333 96 171 59 126 141 179 189 241 356 63 265 270 304 238 198 145 54 15
317 323 296 272 157 126 66 91 219 222 299 340 97 102 241 113 107 76 52 48 17 4 114 115 13 337 51 356 71 156 54 161 105 24 79 276 335 340 348 37 78 105 82 44 0
342 339 284 40 157 60 80 236 258 229 325 18 126 117 167 110 85 81 15 22 333 44 177 170 111 10 298 41 23 105 146 52 14 87 353 328 115 252 339 11 37 61 85 25 23
24 3 304 150 73 46 177 238 284 269 223 221 131 114 131 118 83 69 345 358 8 351 65 61 80 297 37 30 332 2 25 50 106 110 156 184 261 359 320 40 65 52 53 35 12
31 349 307 42 40 64 228 218 287 282 349 327 103 92 118 105 72 84 105 317 345 298 56 353 127 80 128 359 264 39 110 111 112 225 68 134 257 349 75 84 83 51 19 351 327
51 266 309 97 183 303 291 278 256 301 331 348 65 73 80 110 101 91 107 353 15 56 97 182 21 45 353 355 8 44 348 81 95 94 168 136 241 39 48 49 31 22 338 319 306
70 344 312 56 146 166 316 290 296 285 290 25 48 86 83 46 19 136 109 25 19 70 61 84 82 136 169 207 202 20 349 356 96 94 166 195 141 12 31 30 338 328 306 306 318
61 259 239 291 306 242 321 286 307 358 338 26 25 45 122 92 56 88 80 62 25 1 48 86 82 61 40 83 81 94 49 35 70 26 98 166 107 304 240 261 315 330 348 345 341
154 106 351 282 309 210 178 264 309 326 7 342 99 16 87 134 167 165 130 137 155 24 58 23 122 5 45 62 73 72 38 57 52 55 66 82 28 235 267 290 320 337 345 342 330
261 279 122 266 330 146 215 263 275 295 13 43 116 91 51 352 113 97 86 84 91 103 93 72 117 81 93 318 270 32 356 42 74 35 158 261 238 324 313 311 298 309 334 313 323